Regional Weather Roundup
Issued by NWS

Home | Current Version | Previous Version | Graphics & Text | Print | Product List | Glossary On
Versions: 1 2 3 4 5 6 7 8 9 10 11 12 13 14 15 16 17 18 19 20 21 22 23 24 25 26 27 28 29 30 31 32 33 34 35 36 37 38 39 40 41 42 43 44 45 46 47 48 49 50
000
ASUS43 KIND 251559
RWRIN

WEATHER ROUNDUP FOR INDIANA
NATIONAL WEATHER SERVICE INDIANAPOLIS IN
1100 AM EST SAT FEB 25 2017

NOTE: "FAIR" INDICATES FEW OR NO CLOUDS BELOW 12,000 FEET WITH NO
SIGNIFICANT WEATHER AND/OR OBSTRUCTIONS TO VISIBILITY.

* - STATION DOES NOT REPORT WEATHER SUCH AS PRECIPITATION OR FOG.

+ - STATION NOT QUALITY CONTROLLED BY THE NATIONAL WEATHER SERVICE.
    USE DATA WITH CAUTION...ESPECIALLY DEWPOINT AND RELATIVE
    HUMIDITY OBSERVATIONS.

INZ001>003-010>013-019-020-251700-
NORTHWEST INDIANA

CITY           SKY/WX    TMP DP  RH WIND       PRES   REMARKS
GARY /AIRPORT/ FLURRIES  27  14  59 W12G23    29.84R WCI  16
KNOX *+        PTSUNNY   28   1  31 W20G31    29.80R WCI  15
MICHIGAN CITY+ FLURRIES  27  18  69 W13G18    29.81R WCI  16
RENSSELAER +   LGT SNOW  27  21  80 W15G22    29.85R WCI  15

$$

LMZ046-743>745-251700-
SOUTHERN LAKE MICHIGAN

STATION/POSITION TIME  TEMP    WIND        PRES    WAVE
                       AIR SEA DIR/SP/G            HT
                 (UTC) (F)     (DEG/KT/KT) (MB)    (FT)
BURNS HARBOR     1540   25     280/ 20/ 24 1009.8R
MICHIGAN CITY    1530   24     250/ 24/ 26   N/A

$$

INZ004-005-014>016-021>024-251700-
NORTH CENTRAL INDIANA

CITY           SKY/WX    TMP DP  RH WIND       PRES   REMARKS
ELKHART        LGT SNOW  27  19  74 W21       29.75R WCI  13
GOSHEN         FLURRIES  27  17  66 W21G26    29.74R WCI  13
SOUTH BEND     LGT SNOW  24  19  81 NW21G30   29.76R WCI   9

$$

INZ006>009-017-018-025>027-251700-
NORTHEAST INDIANA

CITY           SKY/WX    TMP DP  RH WIND       PRES   REMARKS
ANGOLA *+      CLOUDY    28  21  74 W15       29.68R WCI  17
FORT WAYNE     FLURRIES  30  24  78 W26G36    29.73R WCI  16
KENDALLVILLE + FLURRIES  28  22  76 W18G25    29.71R WCI  16

$$

INZ028-029-035-036-043>045-051>053-251700-
WEST CENTRAL INDIANA

CITY           SKY/WX    TMP DP  RH WIND       PRES   REMARKS
LAFAYETTE      LGT SNOW  24  20  84 W16G32    29.87R VSB 3/4 WCI  11
TERRE HAUTE    CLOUDY    28  16  60 NW15G24   29.95R WCI  16

$$

INZ030>032-037>040-046>048-054>057-064-065-251700-
CENTRAL INDIANA

CITY           SKY/WX    TMP DP  RH WIND       PRES   REMARKS
ANDERSON       CLOUDY    28  19  69 W17G29    29.82  WCI  16
COLUMBUS       FLURRIES  30  23  74 W16G23    29.89R WCI  19
GREENWOOD *+   CLOUDY    29  20  70 W18G30    29.88R WCI  17
INDIANAPOLIS   LGT SNOW  28  20  71 W23G35    29.87R WCI  14
-EAGLE CREEK   LGT SNOW  28  20  71 W16G26    29.85R WCI  16
KOKOMO +       LGT SNOW  26  23  88 W26       29.81R FOG     WCI  10
MT COMFORT *+  CLOUDY    28  21  74 W23G31    29.84R WCI  14
SHELBYVILLE    CLOUDY    30  17  58 W26G36    29.86R WCI  16

$$

INZ033-034-041-042-049-050-058-059-251700-
EAST CENTRAL INDIANA

CITY           SKY/WX    TMP DP  RH WIND       PRES   REMARKS
MUNCIE         CLOUDY    29  21  72 W21G32    29.80R WCI  16

$$

INZ060-061-067>069-081>083-085>088-251700-
SOUTHWEST INDIANA

CITY           SKY/WX    TMP DP  RH WIND       PRES   REMARKS
EVANSVILLE     CLOUDY    33  19  56 NW8G23    30.03R WCI  26
HUNTINGBURG *+ CLOUDY    32  22  66 NW17      29.99R WCI  21

$$

INZ062-063-066-070>080-084-089>092-251700-
SOUTH CENTRAL AND SOUTHEAST INDIANA

CITY           SKY/WX    TMP DP  RH WIND       PRES   REMARKS
BLOOMINGTON    CLOUDY    29  15  56 W21G36    29.91R WCI  16
MADISON *+     CLOUDY    32  23  69 W16G25    29.91R WCI  21
SEYMOUR +      CLOUDY    32  21  64 W24G32    29.91R WCI  19

$$





USA.gov is the U.S. government's official web portal to all federal, state and local government web resources and services.